Location: Caltech
(34.1382°N, 118.1253°W)
Time: 17:51:10
(UTC-07:00)

NOSS 3-2 (A) - Visible Passes

Search period start: 15 September 2014 00:00
Search period end: 25 September 2014 00:00
Orbit: 942 x 1267 km, 63.4° (Epoch: 07 September)

Date Brightness Start Highest point End Pass type
(mag) Time Alt. Az. Time Alt. Az. Time Alt. Az.
15 Sep 5.2 03:13:35 27° N 03:13:35 27° N 03:16:44 10° NNE visible
16 Sep 5.7 02:29:48 20° NNE 02:29:48 20° NNE 02:31:36 10° NNE visible
16 Sep 5.5 04:17:12 15° NW 04:17:12 15° NW 04:20:36 10° N visible
17 Sep 6.3 01:45:59 11° NE 01:45:59 11° NE 01:46:13 10° NE visible
17 Sep 5.5 03:33:22 19° NNW 03:33:22 19° NNW 03:36:14 10° N visible
18 Sep 5.7 02:49:32 18° N 02:49:32 18° N 02:51:28 10° NNE visible
19 Sep 6.1 02:05:40 14° NNE 02:05:40 14° NNE 02:06:27 10° NNE visible
19 Sep 5.8 03:53:04 11° NNW 03:53:04 11° NNW 03:54:31 10° NNW visible
20 Sep 5.9 03:09:11 14° N 03:09:11 14° N 03:10:43 10° N visible
21 Sep 6.1 02:25:17 13° N 02:25:17 13° N 02:26:07 10° N visible
23 Sep 6.2 02:44:51 10° N 02:44:51 10° N 02:45:00 10° N visible
